Regional Weather Roundup
Issued by NWS Charleston, SC

Current Version | Previous Version | Graphics & Text | Print | Product List | Glossary On
Versions: 1 2 3 4 5 6 7 8 9 10 11 12 13 14 15 16 17 18 19 20 21 22 23 24 25 26 27 28 29 30 31 32 33 34 35 36 37 38 39 40 41 42 43 44 45 46 47 48 49 50
000 ASUS42 KCHS 162227 RWRCHS REGIONAL WEATHER ROUNDUP NATIONAL WEATHER SERVICE CHARLESTON SC 500 PM EST MON JAN 16 2017 NOTE: "FAIR" INDICATES FEW OR NO CLOUDS BELOW 12,000 FEET WITH NO SIGNIFICANT WEATHER AND/OR OBSTRUCTIONS TO VISIBILITY. NOT ALL STATIONS ARE QUALITY CONTROLLED. USE DATA WITH CAUTION... ESPECIALLY DEWPOINT OBSERVATIONS. SCZ027-030-031-034>040-042>050-162300- ...SOUTHEAST SOUTH CAROLINA... CITY SKY/WX TMP DP RH WIND PRES REMARKS N CHARLESTON CLOUDY 62 57 83 NE8 30.31S WATERFRONT PRK N/A 58 57 96 E7 30.31S MOUNT PLEASANT CLOUDY 61 57 88 CALM 30.32F JOHNS ISLAND CLOUDY 61 57 88 NE6 30.32S PINOPOLIS N/A 55 55 100 E7 30.24S MONCKS CORNER CLOUDY 57 55 94 E5 30.33R SUMMERVILLE CLOUDY 61 61 100 N6 30.34R BEAUFORT MCAS MOCLDY 65 60 84 SE7 30.30R BEAUFORT ARPT CLOUDY 63 59 88 E12 30.30S FOG HILTON HEAD IS CLOUDY 61 57 88 E7 30.31S WALTERBORO CLOUDY 64 N/A N/A NE5 30.32R ALLENDALE FAIR 66 59 77 CALM 30.29R ...SOUTHERN MIDLANDS AND PEE DEE... CITY SKY/WX TMP DP RH WIND PRES REMARKS GEORGETOWN CLOUDY 55 54 94 CALM 30.35S KINGSTREE CLOUDY 54 52 94 NE3 30.35R ORANGEBURG CLOUDY 58 54 86 E5 30.33R BARNWELL FAIR 63 59 88 NE8 30.31S AIKEN CLOUDY 55 54 94 E7 30.34S FOG MANNING CLOUDY 55 52 88 N3 30.34S COLUMBIA CLOUDY 57 52 83 E9 30.32S SUMTER CLOUDY 54 52 94 NE7 30.32S FLORENCE CLOUDY 54 51 90 E3 30.36R FOG MYRTLE BEACH CLOUDY 61 52 72 NE7 30.37R N MYRTLE BEACH CLOUDY 58 51 78 N5 30.35R $$ GAZ063-065-086>088-099>101-113>116-118-119-134>141-150-162300- ...SOUTHEAST GEORGIA... CITY SKY/WX TMP DP RH WIND PRES REMARKS SAVANNAH ARPT MOCLDY 68 57 68 SE12 30.29R HUNTER AAF CLEAR 63 60 90 E14 30.27R FORT STEWART CLEAR 70 59 67 E10 30.25R STATESBORO CLOUDY 73 61 65 CALM 30.27S HAZE SYLVANIA MOCLDY N/A N/A N/A E7 30.28S CLAXTON MOCLDY N/A N/A N/A CALM 30.26S ...CSRA...CENTRAL AND FAR SOUTHEAST GEORGIA... CITY SKY/WX TMP DP RH WIND PRES REMARKS THOMSON CLOUDY 64 59 85 CALM 30.32S AUGUSTA-BUSH CLEAR 68 56 65 E12 30.27R AUGUSTA-DANIEL PTCLDY 65 54 67 NE10 30.29R SWAINSBORO FAIR 73 50 43 S3 30.25F VIDALIA PTCLDY 73 61 64 CALM 30.25S EASTMAN FAIR 72 39 30 CALM 30.26S HAZLEHURST FAIR 74 56 51 S3 30.24S ALMA PTCLDY 74 54 49 S7 30.24R WAYCROSS PTCLDY 76 58 53 SW3 30.24S JESUP FAIR 73 59 60 SE8 30.26R BAXLEY FAIR 75 59 57 S3 30.25R BRUNSWICK CLEAR 64 61 88 NE7 30.29R SAINT SIMONS CLOUDY 62 60 93 E13 30.28R FOG $$ SCZ027-028-034-036>038-045-046-048>050-GAZ119-141-162300- ...LAKE AND SUPPLEMENTAL COASTAL OBSERVATIONS... STATION/POSITION TIME TEMP WIND PRES WAVE SWELL AIR SEA DIR/SP/G HT/PER HT/PER/DIR (UTC) (F) (DEG/KT/KT) (MB) (FT/S) (FT/S/D) WINYAH BAY 2145 56 40/ 6 1027.0F LAKE MURRAY 2220 55 80/ 4/ 6 1026.4 ACE BASIN NERRS 2145 65 50/ 3 1026.0S FORT PULASKI 2200 57 56 80/ 10/ 12 1026.2 SAPELO ISLAND 2200 63 80/ 9 1025.0 $$ ANZ835-935-AMZ111-154-330-350-352-354-370-450-454-472-162300- ...C-MAN AND BUOY OBSERVATIONS... STATION/POSITION TIME TEMP WIND PRES WAVE SWELL AIR SEA DIR/SP/G HT/PER HT/PER/DIR (UTC) (F) (DEG/KT/KT) (MB) (FT/S) (FT/S/D) BUOY 41004 2150 68 71 70/ 12/ 14 1025.6R 4/ 5 3/ 40/ 5 BUOY 41008 2150 61 60 60/ 10/ 12 1025.2R 2/10 2/ 80/10 FOLLY BEACH CMAN 2200 56 60/ 14/ 15 1026.9F CAPERS NEARSHORE 2208 54 54 40/ 10/ 14 1026.9R FRIPP NEARSHORE 2208 56 56 60/ 12/ 14 1026.1R STATION/POSITION TIME TEMP WIND PRES WAVE SWELL AIR SEA DIR/SP/G HT/PER HT/PER/DIR (UTC) (F) (DEG/KT/KT) (MB) (FT/S) (FT/S/D) 5E ST. MARYS GA 2200 62 N/A 2/11 2/110/11 FRYING PAN BUOY 2210 65 71 40/ 16/ 17 1026.8 BUOY 41025 2150 56 73 20/ 14/ 17 1027.5F 4/ 8 3/ 80/ 8 CAPE LOOKOUT NC 2200 50 10/ 7/ 9 1028.1R BUOY 41002 2150 69 72 120/ 6/ 8 1026.9R 4/ 8 3/ 20/ 8 BUOY 41010 NOT AVBL ST AUGUSTINE FL 2200 68 67 90/ 11/ 12 1025.2R $$

USA.gov is the U.S. government's official web portal to all federal, state and local government web resources and services.